TimeCST,TemperatureF,Dew PointF,Humidity,Sea Level PressureIn,VisibilityMPH,Wind Direction,Wind SpeedMPH,Gust SpeedMPH,PrecipitationIn,Events,Conditions,WindDirDegrees,DateUTC
12:15 AM,-11.2,-16.6,77,30.39,10.0,WSW,3.5,-,N/A,,Clear,250,2013-12-11 06:15:00
12:35 AM,-11.2,-16.6,77,30.40,10.0,West,8.1,-,N/A,,Clear,280,2013-12-11 06:35:00
12:55 AM,-9.4,-14.8,77,30.40,10.0,West,9.2,-,N/A,,Clear,280,2013-12-11 06:55:00
1:15 AM,-14.8,-20.2,77,30.41,10.0,West,6.9,-,N/A,,Clear,270,2013-12-11 07:15:00
1:35 AM,-13.0,-18.4,77,30.40,10.0,West,9.2,-,N/A,,Clear,270,2013-12-11 07:35:00
1:55 AM,-11.2,-14.8,84,30.40,10.0,West,10.4,-,N/A,,Clear,280,2013-12-11 07:55:00
2:15 AM,-13.0,-18.4,77,30.42,10.0,West,5.8,-,N/A,,Clear,260,2013-12-11 08:15:00
2:35 AM,-16.6,-20.2,84,30.42,10.0,West,8.1,-,N/A,,Clear,280,2013-12-11 08:35:00
2:55 AM,-14.8,-20.2,77,30.42,10.0,WNW,3.5,-,N/A,,Clear,290,2013-12-11 08:55:00
3:15 AM,-16.6,-22.0,76,30.42,10.0,West,8.1,-,N/A,,Clear,270,2013-12-11 09:15:00
3:35 AM,-18.4,-22.0,84,30.43,10.0,West,6.9,-,N/A,,Clear,270,2013-12-11 09:35:00
3:55 AM,-18.4,-23.8,76,30.42,10.0,WSW,6.9,-,N/A,,Clear,250,2013-12-11 09:55:00
4:15 AM,-20.2,-25.6,76,30.42,10.0,WSW,6.9,-,N/A,,Clear,250,2013-12-11 10:15:00
4:35 AM,-20.2,-25.6,76,30.41,10.0,WSW,8.1,-,N/A,,Clear,250,2013-12-11 10:35:00
4:55 AM,-20.2,-25.6,76,30.42,10.0,WSW,6.9,-,N/A,,Clear,250,2013-12-11 10:55:00
5:15 AM,-22.0,-27.4,76,30.42,10.0,West,5.8,-,N/A,,Clear,260,2013-12-11 11:15:00
5:35 AM,-20.2,-25.6,76,30.42,10.0,West,4.6,-,N/A,,Clear,260,2013-12-11 11:35:00
5:55 AM,-18.4,-23.8,76,30.42,10.0,WSW,3.5,-,N/A,,Clear,240,2013-12-11 11:55:00
6:15 AM,-18.4,-23.8,76,30.42,10.0,WSW,4.6,-,N/A,,Clear,250,2013-12-11 12:15:00
6:35 AM,-20.2,-25.6,76,30.42,10.0,Calm,Calm,-,N/A,,Clear,0,2013-12-11 12:35:00
6:55 AM,-20.2,-27.4,69,30.41,10.0,WSW,5.8,-,N/A,,Clear,240,2013-12-11 12:55:00
7:15 AM,-20.2,-25.6,76,30.42,10.0,WSW,5.8,-,N/A,,Clear,250,2013-12-11 13:15:00
7:35 AM,-20.2,-25.6,76,30.41,10.0,WSW,5.8,-,N/A,,Clear,250,2013-12-11 13:35:00
7:55 AM,-20.2,-25.6,76,30.42,10.0,SW,4.6,-,N/A,,Clear,230,2013-12-11 13:55:00
8:15 AM,-20.2,-25.6,76,30.42,10.0,WSW,5.8,-,N/A,,Clear,240,2013-12-11 14:15:00
8:35 AM,-22.0,-29.2,69,30.42,-9999.0,Calm,Calm,-,N/A,,Clear,0,2013-12-11 14:35:00
8:55 AM,-25.6,-29.2,83,30.42,10.0,Calm,Calm,-,N/A,,Clear,0,2013-12-11 14:55:00
9:15 AM,-22.0,-27.4,76,30.41,10.0,Calm,Calm,-,N/A,,Clear,0,2013-12-11 15:15:00
9:35 AM,-18.4,-23.8,76,30.41,10.0,ESE,4.6,-,N/A,,Clear,110,2013-12-11 15:35:00
9:55 AM,-14.8,-20.2,77,30.40,10.0,ESE,3.5,-,N/A,,Clear,110,2013-12-11 15:55:00
10:15 AM,-11.2,-16.6,77,30.39,9.0,SE,4.6,-,N/A,,Clear,130,2013-12-11 16:15:00
10:35 AM,-9.4,-13.0,84,30.39,10.0,SSE,10.4,-,N/A,,Clear,160,2013-12-11 16:35:00
10:55 AM,-9.4,-13.0,84,30.39,10.0,South,9.2,-,N/A,,Clear,170,2013-12-11 16:55:00
11:15 AM,-7.6,-11.2,84,30.38,10.0,South,8.1,-,N/A,,Clear,180,2013-12-11 17:15:00
11:35 AM,-4.0,-9.4,78,30.36,10.0,South,8.1,-,N/A,,Clear,190,2013-12-11 17:35:00
11:55 AM,-4.0,-7.6,85,30.35,10.0,South,6.9,-,N/A,,Clear,190,2013-12-11 17:55:00
12:15 PM,-0.4,-4.0,85,30.34,10.0,SSW,10.4,-,N/A,,Clear,210,2013-12-11 18:15:00
12:35 PM,-0.4,-4.0,85,30.32,10.0,SW,10.4,-,N/A,,Clear,220,2013-12-11 18:35:00
12:55 PM,1.4,-5.8,72,30.31,10.0,South,9.2,-,N/A,,Partly Cloudy,180,2013-12-11 18:55:00
1:15 PM,1.4,-4.0,78,30.29,10.0,South,9.2,-,N/A,,Partly Cloudy,170,2013-12-11 19:15:00
1:35 PM,1.4,-4.0,78,30.27,10.0,SSE,9.2,-,N/A,,Clear,160,2013-12-11 19:35:00
1:55 PM,3.2,-4.0,72,30.26,10.0,South,15.0,18.4,N/A,,Clear,180,2013-12-11 19:55:00
2:15 PM,5.0,-2.2,72,30.25,10.0,South,10.4,-,N/A,,Clear,170,2013-12-11 20:15:00
2:35 PM,5.0,-2.2,72,30.24,10.0,SSE,8.1,-,N/A,,Clear,160,2013-12-11 20:35:00
2:55 PM,5.0,-0.4,78,30.23,10.0,South,11.5,-,N/A,,Clear,180,2013-12-11 20:55:00
3:15 PM,5.0,-0.4,78,30.22,10.0,South,9.2,-,N/A,,Clear,170,2013-12-11 21:15:00
3:35 PM,6.8,-0.4,72,30.21,10.0,South,10.4,-,N/A,,Clear,170,2013-12-11 21:35:00
3:55 PM,6.8,-0.4,72,30.20,10.0,South,9.2,-,N/A,,Partly Cloudy,180,2013-12-11 21:55:00
4:15 PM,6.8,-0.4,72,30.19,10.0,SSE,4.6,-,N/A,,Clear,160,2013-12-11 22:15:00
4:35 PM,6.8,1.4,79,30.18,10.0,South,5.8,-,N/A,,Clear,180,2013-12-11 22:35:00
4:55 PM,6.8,1.4,79,30.17,10.0,SE,3.5,-,N/A,,Scattered Clouds,140,2013-12-11 22:55:00
5:15 PM,8.6,1.4,73,30.16,10.0,South,11.5,16.1,N/A,,Mostly Cloudy,190,2013-12-11 23:15:00
5:35 PM,8.6,3.2,79,30.16,10.0,South,8.1,-,N/A,,Overcast,170,2013-12-11 23:35:00
5:55 PM,10.4,5.0,79,30.14,10.0,South,11.5,-,N/A,,Overcast,190,2013-12-11 23:55:00
6:15 PM,10.4,5.0,79,30.14,10.0,South,12.7,-,N/A,,Overcast,190,2013-12-12 00:15:00
6:35 PM,12.2,5.0,73,30.13,10.0,South,11.5,18.4,N/A,,Overcast,190,2013-12-12 00:35:00
6:55 PM,12.2,6.8,79,30.13,10.0,SSW,9.2,-,N/A,,Overcast,210,2013-12-12 00:55:00
7:15 PM,14.0,6.8,73,30.13,10.0,SW,8.1,-,N/A,,Overcast,220,2013-12-12 01:15:00
7:35 PM,14.0,6.8,73,30.11,10.0,SW,11.5,-,N/A,,Overcast,220,2013-12-12 01:35:00
7:55 PM,15.8,8.6,73,30.13,10.0,WSW,10.4,-,N/A,,Overcast,240,2013-12-12 01:55:00
8:15 PM,14.0,6.8,73,30.13,10.0,WSW,8.1,-,N/A,,Mostly Cloudy,240,2013-12-12 02:15:00
8:35 PM,14.0,6.8,73,30.13,10.0,WSW,9.2,-,N/A,,Scattered Clouds,250,2013-12-12 02:35:00
8:55 PM,12.2,6.8,79,30.13,10.0,West,8.1,-,N/A,,Clear,260,2013-12-12 02:55:00
9:15 PM,8.6,5.0,85,30.13,10.0,West,8.1,-,N/A,,Clear,260,2013-12-12 03:15:00
9:35 PM,8.6,3.2,79,30.13,10.0,West,5.8,-,N/A,,Clear,260,2013-12-12 03:35:00
9:55 PM,6.8,3.2,85,30.14,10.0,Calm,Calm,-,N/A,,Clear,0,2013-12-12 03:55:00
10:15 PM,8.6,5.0,85,30.14,10.0,WNW,4.6,-,N/A,,Clear,300,2013-12-12 04:15:00
10:35 PM,10.4,6.8,85,30.15,10.0,WNW,4.6,-,N/A,,Clear,290,2013-12-12 04:35:00
10:55 PM,6.8,3.2,85,30.15,10.0,West,8.1,-,N/A,,Clear,270,2013-12-12 04:55:00
11:15 PM,5.0,3.2,92,30.16,10.0,West,3.5,-,N/A,,Clear,260,2013-12-12 05:15:00
11:35 PM,6.8,3.2,85,30.16,10.0,West,3.5,-,N/A,,Clear,260,2013-12-12 05:35:00
11:55 PM,5.0,1.4,85,30.16,10.0,West,5.8,-,N/A,,Clear,260,2013-12-12 05:55:00